Погода в Ковде

Погода в Ковде : погода сейчас, прогноз погоды и архив. Всё, что Вы хотите узнать о погоде в Ковде!

Поиск расширенной информации на нашем сайте:

Другие новости

Новости СМИ2

Главная страница сайта

Новости сайта

03.07.2017

Напоминаем, что на нашем специализированном сайте Метеоцентр.Азия вы можете получить высокодетализированные автоматические прогнозы погоды по пунктам России, СНГ и мира в авиационном формате (включающие направление и скорость ветра, видимость, явления погоды, количество и форму облачности, нижнюю и верхнюю границу облачности).

Рекомендуем: Организации National University of Ireland.

Погода в Ковде - сегодня

Время (UTC), дата Ветер
(°,м/с) 
Видим.   Явления Облачность Т
(°С)
Тd
(°С)
f(%) Тe
(°С)
Pmin
(гПа)
dP
(гПа)
Po
(мм)
O2
(г/м3)
Тmin Tmax R s Состояние
почвы
09 19.09.17 060 (СВ) 4-8{12}  20000 м    10/10 600 м 
[Sc]
+7.4 +5.1 85 +6  1017.1  1.3  761  298           
12 19.09.17 050 (СВ) 6-11{12}  н/о    н/о 
+7.5 +3.4 75 +5  1018.1  762  298           
15 19.09.17 040 (СВ) 6-11{12}  н/о    н/о 
+7.9 +2.5 69 +6  1019.2  1.1  763  298           
18 19.09.17 070 (В) 4-8{13}  50000 м    9/9 600 м 
[Sc]
+6.7 +1.6 70 +5  1021.2  764  300    +8.4       
21 19.09.17 060 (СВ) 5-11{14}  н/о    н/о 
+5.2 +2.3 82 +3  1022.9  1.6  766  302           
00 20.09.17 040 (СВ) 6-11{12}  н/о    н/о 
+5.4 +1.9 78 +3  1023.9  766  303           
03 20.09.17 040 (СВ) 6-11{12}  н/о    н/о 
+4.9 +1.4 78 +2  1025.5  1.6  767  304  +4.9         
06 20.09.17 040 (СВ) 5-10{12}  20000 м    8/4 600 м средняя, верхняя 
[Sc|Ac trans|Ci fib]
+5.6 +1.4 74 +4  1027  1.5  769  303  +4.8        влажная 
09 20.09.17 060 (СВ) 5-9{13}  20000 м    10/10 600 м 
[Sc]
+6.7 +2.3 73 +5  1028.4  1.4  770  302           
12 20.09.17 050 (СВ) 4-7{11}  н/о    н/о 
+7.7 +2.6 70 +6  1029.8  1.4  771  302           
15 20.09.17 070 (В) 5-9{10}  н/о    н/о 
+7 +2.1 71 +5  1030.9  1.1  772  303           
18 20.09.17 070 (В) 4-7{10}  50000 м    10/10 600 м 
[Sc]
+6.4 +2.1 74 +5  1032.5  1.7  773  304    +7.7       
21 20.09.17 080 (В) 3-7  н/о    н/о 
+6.2 +2.4 77 +5  1034.1  1.5  774  305           
00 21.09.17 110 (В) 2-5  н/о    н/о 
+5.8 +2.3 78 +6  1035.3  1.3  775  305           
03 21.09.17 110 (В) 2-5  н/о    н/о 
+5.3 +2.8 84 +5  1036.4  1.1  776  306  +4.4         
06 21.09.17 100 (В) 1-3  20000 м    10/10 600 м 
[Sc]
+5.5 +3.6 88 +6  1037.8  1.4  777  306  +4.3        влажная 
09 21.09.17 070 (В) 3-6  20000 м    8/6 600 м верхняя 
[Sc|Ci fib]
+7.1 +4.6 84 +6  1038.2  0.4  777  304           
12 21.09.17 110 (В) 2-4  н/о    н/о 
+8.1 +4.4 77 +8  1038.4  0.2  777  303           
15 21.09.17 130 (ЮВ) 3-6  н/о    н/о 
+6.6 +3.7 82 +6  1038.2  -0.3  777  305           
18 21.09.17 180 (Ю) 1-2  50000 м    10/10 600 м 
[Sc]
+5.4 +3.6 88 +6  1038.5  0.3  777  307    +9.3       
21 21.09.17 170 (Ю) 3-5  н/о    н/о 
+5.1 +3.4 89 +4  1038.2  0.3  777  307           
00 22.09.17 170 (Ю) 2-5  н/о    н/о 
+5.2 +3.8 91 +5  1038.1  -0.2  777  307           
03 22.09.17 180 (Ю) 1-2  н/о    н/о 
+4.9 +3.8 93 +6  1037.2  -0.8  776  307  +4.9         
06 22.09.17 190 (Ю) 1-3  20000 м    10/10 600 м 
[Sc]
+6.1 +4.7 91 +7  1036.8  -0.4  776  305  +4.9        влажная 
09 22.09.17 180 (Ю) 2-4  20000 м    8/6 600 м средняя 
[Sc|Ac trans]
+9 +5.1 77 +9  1035.7  -1.1  775  302           
Время (UTC), дата Ветер
(°,м/с) 
Видим.   Явления Облачность Т
(°С)
Тd
(°С)
f(%) Тe
(°С)
Pmin
(гПа)
dP
(гПа)
Po
(мм)
O2
(г/м3)
Тmin Tmax R s Состояние
почвы

Для получения пояснительной информации подведите курсор к названию столбца.

ПОГОДА в Ковде - архив

Всё, что Вы хотите узнать о погоде в Ковде - удобно и подробно!

Выберите нужную дату (начиная с 1 января 2015* года) и нажмите кнопку "Найти".
Будут отображены архивные сводки погоды по пункту Ковда, начиная с указанной даты.


Отображать данные в формате CSV (для использования в таблицах Excel)


Внимание! Наш архив погоды предназначен исключительно для личного некоммерческого использования в познавательных целях. Если Вам необходимы официальные справки о состоянии погоды (для производственных, юридических, коммерческих и т.п. целей), обращайтесь в органы Росгидромета.

*Примечание: данная дата относится к архиву по метеостанциям СССР (Россия, СНГ, Балтия).
Архив по метеостанциям Зарубежной Европы и Азии (кроме Китая) хранится 10 дней, по другим регионам земного шара (Китай, Африка, Америка, Австралия, Океания) - 1 день.

Ковда - район местоположения метеостанции


Название, широта, долгота, высота метеостанции:
Ковда 66.7°ш. 32.9°д. 18 м над ур. моря [Российская Федерация]

Дополнительная информация

В oтличие oт бoльшинства пoгoдных сайтoв мы публикуем пoдрoбную метеoинфoрмацию в детальнoм прoфессиoнальнoм фoрмате.

Характеристики температуры и влажнoсти вoздуха измеряются на высoте 2 м в тени вдали oт зданий и деревьев.
Скoрoсть ветра измеряется на высoте 10 м (на урoвне рoста челoвека скoрoсть ветра ниже в 1.5-2 раза). Если метеoстанция нахoдится в гoрoде или в лесу, тo скoрoсть ветра занижена на 2-4 м/с пo сравнению с oткрытым местoм. Скoрoсть ветра над акватoриями крупных рек и oзёр, а также на вершинах хoлмoв на 2-5 м/с выше, чем в oбычных услoвиях.
Атмoсфернoе давление в разных тoчках местнoсти мoжет значительнo oтличаться oт давления на метеoстанции, в зависимoсти oт услoвий рельефа (при пoдъёме на 10 м давление пoнижается примернo на 1 мм рт.ст.).